Location: Brunembert
(50.7122°N, 1.8935°E)
Time: 04:44:39
(UTC+00:00)

USA 229 DEB - Pass Details

Date: 22 April 2021
Orbit: 960 x 1252 km, 63.4° (Epoch: 23 April)

Event Time Altitude Azimuth Distance (km) Brightness Sun altitude
Rises 22:14:47 0° 315° (NW) 3,948 7.9 -23.4°
Reaches altitude 10° 22:17:25 10° 313° (NW) 3,027 7.0 -23.6°
Maximum altitude 22:24:36 65° 234° (SW) 1,295 4.0 -24.0°
Enters shadow 22:27:01 44° 173° (S) 1,604 4.1 -24.2°
